This is the latest recevied weather packets stored in our database for station/object JO1YDG-13. If no packets are shown the sender has not sent any weather packets the latest 1 day(s).
| Time | Temp. | Humidity | Pressure | Rain* | Wind** | Luminosity | Snow |
|---|---|---|---|---|---|---|---|
| 1778076839 | 15° C | 82% | 990.2 hPa | 0 mm | - | - | - |
| 1778076539 | 15° C | 82% | 990.2 hPa | 0 mm | - | - | - |
| 1778075340 | 14.44° C | 84% | 990.3 hPa | 0 mm | - | - | - |
| 1778073839 | 14.44° C | 83% | 990.4 hPa | 0 mm | - | - | - |
| 1778072338 | 15° C | 83% | 990.6 hPa | 0 mm | - | - | - |
| 1778072040 | 15° C | 83% | 990.6 hPa | 0 mm | - | - | - |
| 1778070839 | 15° C | 82% | 990.6 hPa | 0 mm | - | - | - |
| 1778070539 | 15° C | 82% | 990.6 hPa | 0 mm | - | - | - |
| 1778069339 | 15° C | 81% | 990.5 hPa | 0 mm | - | - | - |
| 1778068138 | 15.56° C | 79% | 990.3 hPa | 0 mm | - | - | - |
| 1778067840 | 15.56° C | 79% | 990.3 hPa | 0 mm | - | - | - |
| 1778066639 | 15.56° C | 78% | 990.3 hPa | 0 mm | - | - | - |
| 1778066339 | 15.56° C | 78% | 990.3 hPa | 0 mm | - | - | - |
| 1778064539 | 16.11° C | 77% | 990.2 hPa | 0 mm | - | - | - |
| 1778064239 | 16.11° C | 76% | 990.2 hPa | 0 mm | - | - | - |
| 1778063338 | 16.67° C | 74% | 990.2 hPa | 0 mm | - | - | - |
| 1778063040 | 16.67° C | 74% | 990.5 hPa | 0 mm | - | - | - |
| 1778061539 | 16.67° C | 73% | 990.3 hPa | 0 mm | - | - | - |
| 1778061239 | 17.22° C | 73% | 990.3 hPa | 0 mm | - | - | - |
| 1778060038 | 17.78° C | 66% | 990 hPa | 0 mm | - | - | - |
| 1778059740 | 17.78° C | 66% | 990 hPa | 0 mm | - | - | - |
| 1778059440 | 17.78° C | 65% | 990 hPa | 0 mm | - | - | - |
| 1778058539 | 18.33° C | 64% | 990.5 hPa | 0 mm | - | - | - |
| 1778058239 | 18.33° C | 64% | 990.4 hPa | 0 mm | - | - | - |
| 1778057939 | 18.33° C | 64% | 990.3 hPa | 0 mm | - | - | - |
* Rain latest hour (hover to see other rain measurements)
** Current wind speed in m/s (hover to see current wind gust speed)